Location: Val-d'Or
(48.1170°N, 77.7670°W)
Time: 09:29:07
(UTC-04:00)

ISS - Pass Details

Date: 22 May 2018
Orbit: 402 x 407 km, 51.6° (Epoch: 27 May)

Event Time Altitude Azimuth Distance (km) Brightness Sun altitude
Rises 23:09:59 0° 255° (WSW) 2,315 0.2 -16.4°
Reaches altitude 10° 23:12:04 10° 259° (WSW) 1,457 -0.8 -16.6°
Maximum altitude 23:15:19 66° 343° (NNW) 443 -3.5 -16.9°
Drops below altitude 10° 23:18:34 10° 66° (ENE) 1,459 -1.0 -17.1°
Sets 23:20:40 0° 69° (ENE) 2,320 0.0 -17.3°
